Location: Daouli
(14.8671°N, 3.2030°W)
Time: 01:22:08
(UTC+00:00)

Cosmos 2297 Rocket - Pass Details

Date: 29 October 2020
Orbit: 838 x 844 km, 71.0° (Epoch: 02 December)

Event Time Altitude Azimuth Distance (km) Brightness Sun altitude
Rises 19:22:34 0° 335° (NNW) 3,393 5.5 -23.9°
Reaches altitude 10° 19:25:03 10° 331° (NNW) 2,457 4.8 -24.5°
Maximum altitude 19:30:32 53° 255° (WSW) 1,023 2.9 -25.8°
Drops below altitude 10° 19:35:59 10° 179° (S) 2,451 4.7 -27.1°
Sets 19:38:29 0° 175° (S) 3,384 5.4 -27.7°
